Location: Brad
(46.1333°N, 22.7833°E)
Time: 10:33:18
(UTC+00:00)

Cosmos 2360 Rocket - Pass Details

Date: 03 February 2023
Orbit: 832 x 846 km, 71.0° (Epoch: 30 March)

Event Time Altitude Azimuth Distance (km) Brightness Sun altitude
Rises 16:19:38 0° 175° (S) 3,371 5.5 -7.9°
Reaches altitude 10° 16:22:17 10° 165° (SSE) 2,443 4.6 -8.3°
Maximum altitude 16:27:10 32° 104° (ESE) 1,417 2.9 -9.2°
Drops below altitude 10° 16:32:05 10° 44° (NE) 2,467 4.1 -10.0°
Enters shadow 16:33:08 - 39° (NE) 2,824 4.5 -10.2°
